SCP
0 0 0 0 0 0 0 0 0 0 0 0 0 0 0 0 0 0 0 0 0 0 -0 0 0 0 0 1 2 1 1 2 2 2 2 2 1 1 1 0 0 0 0 0
0 0 0 0 0 0 0 0 0 0 0 0 0 0 0 0 0 0 0 0 0 0 0 0 0 0 1 1 1 1 1 2 2 3 2 1 1 0 0 0 0 0 0 0
0 0 0 0 0 0 0 0 0 0 0 0 0 0 0 0 0 0 0 0 0 0 0 0 0 1 1 1 1 1 1 2 2 2 2 1 1 0 0 0 0 0 0 0
0 0 0 0 0 0 0 0 0 0 0 0 0 0 0 0 0 0 0 0 0 0 0 0 0 0 1 1 1 2 3 2 2 1 1 0 0 0 0 0 0 0 0 0
0 0 0 0 0 0 0 0 0 0 0 0 0 0 0 0 0 0 0 0 0 0 0 0 0 0 0 1 2 1 2 2 3 1 1 1 0 0 0 0 0 0 0 0
0 0 0 0 0 0 0 0 0 0 0 0 0 0 -0 0 0 0 0 0 0 0 0 0 0 0 0 2 3 2 2 2 3 1 1 0 0 0 0 0 0 0 0 0
0 0 0 0 0 0 0 0 0 0 0 0 0 0 0 0 0 0 0 0 0 0 0 0 0 0 0 1 2 2 1 2 1 1 0 0 0 0 0 0 0 0 0 0
0 0 0 0 0 0 0 0 0 0 0 0 0 0 0 0 0 0 0 0 0 0 0 0 0 0 0 1 2 1 1 1 0 0 0 0 0 0 0 0 0 0 0 0
0 0 0 0 0 0 0 0 0 0 0 0 0 0 0 0 0 0 0 0 0 0 0 0 0 0 0 1 1 0 0 0 0 0 0 0 0 0 0 0 0 0 0 0
0 0 0 0 0 0 0 0 0 0 0 0 0 0 0 0 0 0 0 0 0 0 0 0 0 0 0 0 0 0 0 0 0 0 0 0 0 0 0 0 0 0 0 0
0 0 0 0 0 0 0 0 0 0 0 0 0 0 0 0 0 0 0 0 0 0 0 0 0 0 0 0 0 0 0 0 0 0 0 0 0 0 0 0 0 0 0 0
0 0 0 0 0 0 0 0 0 0 0 0 0 0 0 0 0 0 0 0 0 0 0 0 0 0 0 0 0 0 0 0 0 0 0 0 0 0 0 0 0 0 0 0
0 0 0 0 0 0 0 0 0 0 0 0 0 0 0 0 0 0 0 0 0 0 0 0 0 0 0 0 0 0 0 0 0 0 0 0 0 0 0 0 0 0 0 0
0 0 0 0 0 0 0 0 0 0 0 0 0 0 0 0 0 0 0 0 0 0 0 0 0 0 0 0 0 0 0 0 0 0 0 0 0 0 0 0 0 0 0 0
0 0 0 0 0 0 0 0 0 0 0 0 0 0 0 0 0 0 0 0 0 0 0 0 0 0 0 0 0 0 0 0 0 0 0 0 0 0 0 0 0 0 0 0
0 0 0 0 0 0 0 0 0 0 0 0 0 0 0 0 0 0 0 0 0 0 0 0 0 0 0 0 0 0 0 0 0 0 0 0 0 0 0 0 0 0 0 0
0 0 0 0 0 0 0 0 0 0 0 0 0 0 0 0 0 0 0 0 0 0 0 0 0 0 0 0 0 0 0 0 0 0 0 0 0 0 0 0 0 0 0 0
-0 0 -0 -0 0 0 0 0 0 0 0 0 0 -0 0 0 0 0 0 0 0 0 0 0 0 0 0 0 0 0 0 0 0 0 0 0 0 0 0 0 0 0 0 0
0 -0 -0 -0 0 0 0 0 0 0 0 0 0 -0 0 0 0 0 0 0 0 0 0 0 0 0 0 0 0 0 0 0 0 0 0 0 0 0 0 0 0 0 0 0
-0 -0 0 -0 -0 -0 0 0 0 0 0 0 0 0 0 0 0 0 0 0 0 0 0 0 0 0 0 0 0 0 0 0 0 0 0 0 0 0 0 0 0 0 0 0
0 0 -0 0 -0 -0 -0 0 0 0 0 0 0 0 0 0 0 0 0 0 0 0 0 0 0 0 0 0 0 0 0 0 0 0 0 0 0 0 0 0 0 0 0 0
0 0 -0 -0 0 0 -0 -0 0 0 0 0 0 0 0 0 0 0 0 0 0 0 0 0 0 0 0 0 0 0 0 0 0 0 0 0 0 0 0 0 0 0 0 0
0 0 0 0 -0 0 0 0 0 0 0 0 0 0 0 0 0 0 0 0 0 0 0 0 0 0 0 0 0 0 0 0 0 0 0 0 0 0 0 0 0 0 0 0
0 0 -0 -0 -0 0 0 0 0 0 0 0 0 0 0 0 0 0 0 0 0 0 0 0 0 0 0 0 0 0 0 0 0 0 0 0 0 0 0 0 0 0 0 0
0 0 -0 -0 -0 0 0 0 0 0 0 0 0 0 0 0 0 0 0 0 0 0 0 0 0 0 0 0 0 0 0 0 0 0 0 0 0 0 0 0 0 0 0 0
0 0 -0 -0 0 0 0 -0 -0 0 0 0 0 0 0 0 0 0 0 0 0 0 0 0 0 0 0 0 0 0 0 0 0 0 0 0 0 0 0 0 0 0 0 0
Wind_Speed_500mb
47 31 49 51 45 50 48 49 48 37 36 43 37 39 42 44 35 41 41 42 43 47 52 55 58 51 52 52 55 54 53 54 62 57 58 55 45 37 33 32 29 27 23 20
43 55 59 48 47 50 51 53 53 44 39 37 36 45 38 38 44 52 55 50 51 50 51 55 53 57 56 57 59 58 55 63 71 66 54 44 41 36 32 32 33 30 25 23
61 71 53 50 53 54 53 55 45 51 40 47 44 57 49 43 53 60 69 59 60 58 58 58 63 60 59 61 61 64 61 71 73 72 53 50 50 40 36 34 34 32 29 24
63 69 62 52 63 56 56 51 47 51 42 46 36 48 50 47 50 55 69 74 62 71 63 60 65 67 66 65 61 67 69 70 63 64 64 64 53 46 39 36 32 34 27 21
56 67 58 62 60 51 61 42 50 50 46 42 60 37 38 43 47 46 47 52 62 62 62 62 66 72 69 65 67 60 74 71 71 66 63 61 46 40 39 36 37 31 27 20
38 75 59 57 62 53 48 46 35 38 32 35 62 39 57 44 52 46 52 65 64 58 60 61 62 67 69 69 68 64 75 78 74 71 63 58 53 50 45 41 37 31 25 20
58 65 66 57 52 53 50 43 31 34 33 43 45 39 68 5 22 34 36 48 54 53 55 58 58 65 70 72 73 72 78 86 81 71 64 60 59 53 47 44 36 33 28 23
51 50 69 58 74 57 58 54 28 42 40 42 50 51 67 50 51 51 36 22 36 50 50 55 56 63 70 70 73 65 74 73 80 82 73 73 68 57 46 39 36 30 24 22
46 73 48 64 64 54 53 54 66 43 34 25 35 48 58 47 40 24 33 44 51 57 52 56 54 59 66 66 69 65 68 91 78 83 78 68 59 49 43 41 37 32 30 24
67 54 55 67 69 64 56 38 45 26 40 56 55 59 50 43 55 42 38 45 47 56 50 43 49 56 59 56 59 54 69 83 83 81 78 66 58 49 46 44 37 33 27 21
58 54 61 54 57 60 41 50 49 44 35 35 42 44 51 56 52 42 41 46 45 48 49 42 48 54 57 53 55 55 61 72 78 81 77 71 62 54 48 39 35 27 19 14
52 37 45 75 63 48 64 55 59 26 59 48 38 47 44 39 22 12 25 39 39 43 39 42 51 62 68 62 62 64 73 83 86 86 80 75 64 55 45 39 33 25 18 14
33 33 40 61 46 57 50 56 66 53 38 50 35 49 28 43 40 27 26 32 24 31 37 45 52 64 70 70 67 67 72 74 89 85 80 71 62 50 44 38 30 22 17 14
49 41 33 44 56 47 55 63 62 55 40 50 50 76 60 28 10 15 13 22 27 33 42 51 56 63 62 66 69 71 72 76 88 83 73 67 53 49 46 39 29 20 15 16
23 45 53 55 63 66 61 78 70 64 62 54 68 76 60 45 31 27 37 38 35 40 46 53 58 63 64 69 72 72 73 77 76 70 64 57 54 53 46 35 25 18 14 13
30 28 41 60 66 68 67 71 61 61 57 72 76 71 64 53 67 66 60 56 47 48 52 56 58 63 68 73 77 78 79 78 73 68 64 58 61 55 43 32 22 16 12 11
41 23 14 33 63 68 62 61 67 68 74 69 69 85 28 44 55 57 67 45 50 54 57 61 67 69 71 77 79 83 81 78 75 69 64 60 61 51 39 28 20 14 12 11
18 26 11 19 45 65 40 58 70 66 71 72 73 77 60 61 72 69 74 84 60 55 56 60 64 67 72 74 78 79 81 79 77 71 65 64 60 48 37 27 20 17 13 14
38 19 10 11 29 40 45 59 62 60 76 69 70 71 59 65 61 73 84 82 63 59 71 65 65 69 73 79 83 84 83 79 74 71 67 68 58 45 33 26 23 17 21 22
44 35 16 27 15 27 53 69 53 50 44 61 67 59 52 49 40 52 76 67 76 69 64 59 57 64 74 84 89 88 87 84 78 73 76 65 53 37 28 29 29 24 23 20
25 15 23 30 19 20 46 50 70 53 25 17 43 57 43 39 47 72 71 83 77 69 57 57 60 68 77 85 91 90 87 83 78 82 72 60 44 36 35 28 26 25 23 20
39 25 23 16 27 39 28 42 38 49 50 56 13 12 38 32 33 27 36 43 55 58 51 47 59 70 77 84 89 87 87 86 90 78 71 58 49 38 30 29 28 28 26 25
33 35 32 25 25 35 17 33 57 56 28 15 17 11 12 6 5 8 11 15 21 30 37 52 68 71 79 92 96 93 89 89 88 80 64 54 40 31 28 35 34 34 29 25
43 18 14 15 41 51 66 50 34 31 21 15 17 15 10 7 10 9 12 20 32 38 42 49 60 65 69 73 72 70 81 92 79 66 54 42 30 37 40 40 39 36 32 25
24 15 23 30 40 65 64 53 74 42 32 28 12 8 13 15 20 25 23 28 35 48 57 61 69 75 75 72 74 79 89 80 65 51 43 26 32 45 46 43 39 34 27 20
28 40 25 35 40 38 55 62 73 49 39 24 26 14 13 24 27 36 39 41 52 54 60 69 76 77 75 75 81 92 81 64 51 43 35 43 52 51 51 45 37 29 21 15
Wind_Direction_500mb
202 221 231 225 221 249 258 260 259 250 249 237 230 245 259 249 230 230 241 251 244 248 249 237 222 215 214 210 204 200 196 193 191 192 191 187 187 183 186 198 206 204 199 198
220 224 232 235 243 242 246 255 257 267 269 275 248 258 260 254 249 257 258 240 248 243 240 238 222 210 214 209 205 202 197 198 197 192 195 184 177 175 176 184 190 195 201 198
223 229 227 238 237 239 245 243 254 258 260 263 261 262 258 250 259 255 255 248 248 247 242 231 227 208 212 209 205 202 197 203 203 196 178 183 181 173 175 180 188 192 198 202
234 238 242 222 234 239 241 242 250 259 259 260 258 268 248 244 237 238 238 244 243 243 245 238 223 213 214 211 205 201 196 204 196 203 196 197 182 182 183 179 176 187 195 194
238 239 235 247 237 230 247 246 253 252 254 263 261 260 260 252 255 249 257 226 234 244 241 238 223 218 216 211 203 203 194 199 195 193 194 189 186 183 180 174 181 180 185 187
247 250 240 237 249 240 247 246 245 257 244 248 253 255 273 259 254 234 237 248 244 235 238 237 227 219 211 207 203 201 194 199 197 204 190 191 181 181 175 176 173 175 174 180
233 238 244 247 248 243 216 230 237 232 234 240 251 245 254 260 253 258 248 217 241 238 230 234 226 217 204 202 204 202 194 195 189 191 191 191 183 181 178 177 173 172 176 178
225 235 223 227 233 231 223 218 220 222 232 249 248 237 253 253 264 258 226 259 238 249 231 229 229 220 204 199 202 195 194 187 200 195 194 191 194 187 178 173 176 172 172 174
234 234 225 222 237 222 237 221 226 245 278 273 263 257 264 253 226 216 220 238 234 242 242 223 227 222 204 195 202 200 196 204 207 201 195 194 186 175 176 174 169 169 175 190
248 263 243 229 219 236 219 236 229 224 242 249 258 256 257 241 246 213 212 228 233 238 239 225 220 216 198 197 202 195 197 201 198 195 192 184 171 171 174 179 173 181 189 198
238 244 260 271 241 214 212 226 237 233 218 238 247 260 259 251 251 246 205 222 227 235 237 216 213 204 197 193 197 193 186 188 185 189 184 178 176 178 181 175 179 184 197 216
237 247 243 247 257 256 219 219 230 216 219 228 250 273 261 286 275 214 218 221 220 230 231 211 207 196 190 191 193 191 183 190 190 190 183 185 184 180 174 179 185 193 204 225
263 237 242 257 244 254 250 232 227 229 227 228 229 251 249 249 268 247 229 208 216 213 210 201 201 198 191 188 190 188 184 180 190 184 186 184 181 174 175 178 185 194 211 242
309 269 249 242 238 234 230 238 238 230 228 235 234 249 241 255 271 249 211 236 220 205 202 196 197 199 196 191 188 188 185 179 182 185 185 182 172 170 178 181 190 199 221 248
292 263 259 261 256 248 242 226 231 236 225 235 238 243 247 246 246 219 212 201 194 200 200 199 199 198 196 195 188 189 186 181 179 177 176 173 169 178 181 184 189 207 227 241
270 261 260 253 256 248 244 250 246 235 241 240 245 246 249 259 267 270 253 206 208 198 198 201 200 201 200 197 191 187 185 182 180 178 176 171 177 181 180 183 194 206 220 233
291 263 269 245 241 247 245 240 244 239 238 240 243 246 259 255 248 260 271 251 207 218 209 204 204 202 200 196 191 186 184 181 181 179 175 172 179 177 178 181 189 196 200 227
245 269 289 292 270 240 240 242 243 254 250 244 246 252 249 255 259 261 258 259 216 224 221 218 210 202 200 194 190 185 183 183 180 178 173 174 175 174 174 178 183 183 199 191
256 247 274 237 272 267 243 235 236 233 245 245 259 263 262 264 272 258 250 253 246 222 233 231 217 199 191 186 184 182 180 182 181 178 171 173 172 170 175 178 179 192 192 205
231 216 214 276 264 290 238 240 239 244 247 235 244 255 254 249 248 259 259 249 250 230 225 223 208 198 188 182 180 178 178 180 180 175 172 169 169 171 174 181 183 199 199 207
252 243 239 251 239 252 265 279 249 233 235 215 255 239 233 241 244 254 250 254 248 235 222 220 199 191 187 178 178 176 175 176 175 177 169 167 169 177 185 184 193 193 197 188
248 247 233 233 248 269 231 257 292 229 242 278 319 282 228 247 276 275 266 259 238 229 224 207 184 179 178 175 173 171 170 176 180 172 169 169 174 176 178 186 191 183 176 171
258 251 250 232 243 256 281 307 235 279 243 230 214 222 230 247 285 285 249 198 191 187 182 177 170 168 173 171 171 169 171 175 176 169 166 166 165 168 184 188 177 168 169 171
262 284 250 305 264 254 261 260 264 277 273 277 266 225 217 207 169 178 174 152 150 156 159 158 157 161 161 166 170 170 166 169 166 162 161 159 169 182 186 179 175 174 174 175
252 250 251 258 268 264 246 244 251 249 242 252 270 251 164 180 157 157 155 155 159 158 160 163 164 162 162 163 171 174 172 165 161 168 165 177 196 194 179 175 173 173 177 188
231 248 251 258 266 270 273 243 248 234 229 207 211 219 175 178 167 172 163 159 155 156 162 161 159 158 160 171 175 174 166 170 180 178 189 196 187 180 177 174 172 178 188 201
Wind_Speed_850mb
47 31 49 51 45 50 48 49 48 37 36 43 37 39 42 44 35 41 41 42 43 47 52 55 58 51 52 52 55 54 53 54 62 57 58 55 45 37 33 32 29 27 23 20
43 55 59 48 47 50 51 53 53 44 39 37 36 45 38 38 44 52 55 50 51 50 51 55 53 57 56 57 59 58 55 63 71 66 54 44 41 36 32 32 33 30 25 23
61 71 53 50 53 54 53 55 45 51 40 47 44 57 49 43 53 60 69 59 60 58 58 58 63 60 59 61 61 64 61 71 73 72 53 50 50 40 36 34 34 32 29 24
63 69 62 52 63 56 56 51 47 51 42 46 36 48 50 47 50 55 69 74 62 71 63 60 65 67 66 65 61 67 69 70 63 64 64 64 53 46 39 36 32 34 27 21
56 67 58 62 60 51 61 42 50 50 46 42 60 37 38 43 47 46 47 52 62 62 62 62 66 72 69 65 67 60 74 71 71 66 63 61 46 40 39 36 37 31 27 20
38 75 59 57 62 53 48 46 35 38 32 35 62 39 57 44 52 46 52 65 64 58 60 61 62 67 69 69 68 64 75 78 74 71 63 58 53 50 45 41 37 31 25 20
58 65 66 57 52 53 50 43 31 34 33 43 45 39 68 5 22 34 36 48 54 53 55 58 58 65 70 72 73 72 78 86 81 71 64 60 59 53 47 44 36 33 28 23
51 50 69 58 74 57 58 54 28 42 40 42 50 51 67 50 51 51 36 22 36 50 50 55 56 63 70 70 73 65 74 73 80 82 73 73 68 57 46 39 36 30 24 22
46 73 48 64 64 54 53 54 66 43 34 25 35 48 58 47 40 24 33 44 51 57 52 56 54 59 66 66 69 65 68 91 78 83 78 68 59 49 43 41 37 32 30 24
67 54 55 67 69 64 56 38 45 26 40 56 55 59 50 43 55 42 38 45 47 56 50 43 49 56 59 56 59 54 69 83 83 81 78 66 58 49 46 44 37 33 27 21
58 54 61 54 57 60 41 50 49 44 35 35 42 44 51 56 52 42 41 46 45 48 49 42 48 54 57 53 55 55 61 72 78 81 77 71 62 54 48 39 35 27 19 14
52 37 45 75 63 48 64 55 59 26 59 48 38 47 44 39 22 12 25 39 39 43 39 42 51 62 68 62 62 64 73 83 86 86 80 75 64 55 45 39 33 25 18 14
33 33 40 61 46 57 50 56 66 53 38 50 35 49 28 43 40 27 26 32 24 31 37 45 52 64 70 70 67 67 72 74 89 85 80 71 62 50 44 38 30 22 17 14
49 41 33 44 56 47 55 63 62 55 40 50 50 76 60 28 10 15 13 22 27 33 42 51 56 63 62 66 69 71 72 76 88 83 73 67 53 49 46 39 29 20 15 16
23 45 53 55 63 66 61 78 70 64 62 54 68 76 60 45 31 27 37 38 35 40 46 53 58 63 64 69 72 72 73 77 76 70 64 57 54 53 46 35 25 18 14 13
30 28 41 60 66 68 67 71 61 61 57 72 76 71 64 53 67 66 60 56 47 48 52 56 58 63 68 73 77 78 79 78 73 68 64 58 61 55 43 32 22 16 12 11
41 23 14 33 63 68 62 61 67 68 74 69 69 85 28 44 55 57 67 45 50 54 57 61 67 69 71 77 79 83 81 78 75 69 64 60 61 51 39 28 20 14 12 11
18 26 11 19 45 65 40 58 70 66 71 72 73 77 60 61 72 69 74 84 60 55 56 60 64 67 72 74 78 79 81 79 77 71 65 64 60 48 37 27 20 17 13 14
38 19 10 11 29 40 45 59 62 60 76 69 70 71 59 65 61 73 84 82 63 59 71 65 65 69 73 79 83 84 83 79 74 71 67 68 58 45 33 26 23 17 21 22
44 35 16 27 15 27 53 69 53 50 44 61 67 59 52 49 40 52 76 67 76 69 64 59 57 64 74 84 89 88 87 84 78 73 76 65 53 37 28 29 29 24 23 20
25 15 23 30 19 20 46 50 70 53 25 17 43 57 43 39 47 72 71 83 77 69 57 57 60 68 77 85 91 90 87 83 78 82 72 60 44 36 35 28 26 25 23 20
39 25 23 16 27 39 28 42 38 49 50 56 13 12 38 32 33 27 36 43 55 58 51 47 59 70 77 84 89 87 87 86 90 78 71 58 49 38 30 29 28 28 26 25
33 35 32 25 25 35 17 33 57 56 28 15 17 11 12 6 5 8 11 15 21 30 37 52 68 71 79 92 96 93 89 89 88 80 64 54 40 31 28 35 34 34 29 25
43 18 14 15 41 51 66 50 34 31 21 15 17 15 10 7 10 9 12 20 32 38 42 49 60 65 69 73 72 70 81 92 79 66 54 42 30 37 40 40 39 36 32 25
24 15 23 30 40 65 64 53 74 42 32 28 12 8 13 15 20 25 23 28 35 48 57 61 69 75 75 72 74 79 89 80 65 51 43 26 32 45 46 43 39 34 27 20
28 40 25 35 40 38 55 62 73 49 39 24 26 14 13 24 27 36 39 41 52 54 60 69 76 77 75 75 81 92 81 64 51 43 35 43 52 51 51 45 37 29 21 15
Wind_Direction_850mb
202 221 231 225 221 249 258 260 259 250 249 237 230 245 259 249 230 230 241 251 244 248 249 237 222 215 214 210 204 200 196 193 191 192 191 187 187 183 186 198 206 204 199 198
220 224 232 235 243 242 246 255 257 267 269 275 248 258 260 254 249 257 258 240 248 243 240 238 222 210 214 209 205 202 197 198 197 192 195 184 177 175 176 184 190 195 201 198
223 229 227 238 237 239 245 243 254 258 260 263 261 262 258 250 259 255 255 248 248 247 242 231 227 208 212 209 205 202 197 203 203 196 178 183 181 173 175 180 188 192 198 202
234 238 242 222 234 239 241 242 250 259 259 260 258 268 248 244 237 238 238 244 243 243 245 238 223 213 214 211 205 201 196 204 196 203 196 197 182 182 183 179 176 187 195 194
238 239 235 247 237 230 247 246 253 252 254 263 261 260 260 252 255 249 257 226 234 244 241 238 223 218 216 211 203 203 194 199 195 193 194 189 186 183 180 174 181 180 185 187
247 250 240 237 249 240 247 246 245 257 244 248 253 255 273 259 254 234 237 248 244 235 238 237 227 219 211 207 203 201 194 199 197 204 190 191 181 181 175 176 173 175 174 180
233 238 244 247 248 243 216 230 237 232 234 240 251 245 254 260 253 258 248 217 241 238 230 234 226 217 204 202 204 202 194 195 189 191 191 191 183 181 178 177 173 172 176 178
225 235 223 227 233 231 223 218 220 222 232 249 248 237 253 253 264 258 226 259 238 249 231 229 229 220 204 199 202 195 194 187 200 195 194 191 194 187 178 173 176 172 172 174
234 234 225 222 237 222 237 221 226 245 278 273 263 257 264 253 226 216 220 238 234 242 242 223 227 222 204 195 202 200 196 204 207 201 195 194 186 175 176 174 169 169 175 190
248 263 243 229 219 236 219 236 229 224 242 249 258 256 257 241 246 213 212 228 233 238 239 225 220 216 198 197 202 195 197 201 198 195 192 184 171 171 174 179 173 181 189 198
238 244 260 271 241 214 212 226 237 233 218 238 247 260 259 251 251 246 205 222 227 235 237 216 213 204 197 193 197 193 186 188 185 189 184 178 176 178 181 175 179 184 197 216
237 247 243 247 257 256 219 219 230 216 219 228 250 273 261 286 275 214 218 221 220 230 231 211 207 196 190 191 193 191 183 190 190 190 183 185 184 180 174 179 185 193 204 225
263 237 242 257 244 254 250 232 227 229 227 228 229 251 249 249 268 247 229 208 216 213 210 201 201 198 191 188 190 188 184 180 190 184 186 184 181 174 175 178 185 194 211 242
309 269 249 242 238 234 230 238 238 230 228 235 234 249 241 255 271 249 211 236 220 205 202 196 197 199 196 191 188 188 185 179 182 185 185 182 172 170 178 181 190 199 221 248
292 263 259 261 256 248 242 226 231 236 225 235 238 243 247 246 246 219 212 201 194 200 200 199 199 198 196 195 188 189 186 181 179 177 176 173 169 178 181 184 189 207 227 241
270 261 260 253 256 248 244 250 246 235 241 240 245 246 249 259 267 270 253 206 208 198 198 201 200 201 200 197 191 187 185 182 180 178 176 171 177 181 180 183 194 206 220 233
291 263 269 245 241 247 245 240 244 239 238 240 243 246 259 255 248 260 271 251 207 218 209 204 204 202 200 196 191 186 184 181 181 179 175 172 179 177 178 181 189 196 200 227
245 269 289 292 270 240 240 242 243 254 250 244 246 252 249 255 259 261 258 259 216 224 221 218 210 202 200 194 190 185 183 183 180 178 173 174 175 174 174 178 183 183 199 191
256 247 274 237 272 267 243 235 236 233 245 245 259 263 262 264 272 258 250 253 246 222 233 231 217 199 191 186 184 182 180 182 181 178 171 173 172 170 175 178 179 192 192 205
231 216 214 276 264 290 238 240 239 244 247 235 244 255 254 249 248 259 259 249 250 230 225 223 208 198 188 182 180 178 178 180 180 175 172 169 169 171 174 181 183 199 199 207
252 243 239 251 239 252 265 279 249 233 235 215 255 239 233 241 244 254 250 254 248 235 222 220 199 191 187 178 178 176 175 176 175 177 169 167 169 177 185 184 193 193 197 188
248 247 233 233 248 269 231 257 292 229 242 278 319 282 228 247 276 275 266 259 238 229 224 207 184 179 178 175 173 171 170 176 180 172 169 169 174 176 178 186 191 183 176 171
258 251 250 232 243 256 281 307 235 279 243 230 214 222 230 247 285 285 249 198 191 187 182 177 170 168 173 171 171 169 171 175 176 169 166 166 165 168 184 188 177 168 169 171
262 284 250 305 264 254 261 260 264 277 273 277 266 225 217 207 169 178 174 152 150 156 159 158 157 161 161 166 170 170 166 169 166 162 161 159 169 182 186 179 175 174 174 175
252 250 251 258 268 264 246 244 251 249 242 252 270 251 164 180 157 157 155 155 159 158 160 163 164 162 162 163 171 174 172 165 161 168 165 177 196 194 179 175 173 173 177 188
231 248 251 258 266 270 273 243 248 234 229 207 211 219 175 178 167 172 163 159 155 156 162 161 159 158 160 171 175 174 166 170 180 178 189 196 187 180 177 174 172 178 188 201